Mountain Creek Lake Weather Center

Moon Phase Calendar



Mountain Creek Lake Water Level
Online Cameras

 


      

Current Conditions in Pine Mountain
2/29/2024 5:01:08 AM

41°F
Feels Like 38
Clear
Humidity
52%
Pressure
30.3"
Wind
4.6 mph (N)
Dew Point
26°F
UV Index
0/10 (Low)
Visibility
6 mi

Hourly Forecast

Date & Time Thu, Feb 29
5:00 AM
Thu, Feb 29
6:00 AM
Thu, Feb 29
7:00 AM
Thu, Feb 29
8:00 AM
Thu, Feb 29
9:00 AM
Thu, Feb 29
10:00 AM
Thu, Feb 29
11:00 AM
Thu, Feb 29
12:00 PM
Thu, Feb 29
1:00 PM
Thu, Feb 29
2:00 PM
Thu, Feb 29
3:00 PM
Thu, Feb 29
4:00 PM
Thu, Feb 29
5:00 PM
Thu, Feb 29
6:00 PM
Thu, Feb 29
7:00 PM
Thu, Feb 29
8:00 PM
Thu, Feb 29
9:00 PM
Thu, Feb 29
10:00 PM
Thu, Feb 29
11:00 PM
Fri, Mar 1
12:00 AM
Fri, Mar 1
1:00 AM
Fri, Mar 1
2:00 AM
Fri, Mar 1
3:00 AM
Fri, Mar 1
4:00 AM
Fri, Mar 1
5:00 AM
Fri, Mar 1
6:00 AM
Fri, Mar 1
7:00 AM
Fri, Mar 1
8:00 AM
Fri, Mar 1
9:00 AM
Fri, Mar 1
10:00 AM
Fri, Mar 1
11:00 AM
Fri, Mar 1
12:00 PM
Fri, Mar 1
1:00 PM
Fri, Mar 1
2:00 PM
Fri, Mar 1
3:00 PM
Fri, Mar 1
4:00 PM
Fri, Mar 1
5:00 PM
Fri, Mar 1
6:00 PM
Fri, Mar 1
7:00 PM
Fri, Mar 1
8:00 PM
Fri, Mar 1
9:00 PM
Fri, Mar 1
10:00 PM
Fri, Mar 1
11:00 PM
Sat, Mar 2
12:00 AM
Sat, Mar 2
1:00 AM
Sat, Mar 2
2:00 AM
Sat, Mar 2
3:00 AM
Sat, Mar 2
4:00 AM
Condition
Clear

Clouds

Clouds

Clouds

Clouds

Clouds

Clouds

Clouds

Clouds

Clouds

Clouds

Clouds

Clouds

Clouds

Clouds

Clouds

Clouds

Clouds

Clouds

Clouds

Clouds

Rain

Rain

Clouds

Clouds

Clouds

Clouds

Clouds

Rain

Rain

Rain

Rain

Rain

Rain

Rain

Rain

Rain

Rain

Clouds

Clouds

Clouds

Clouds

Clouds

Rain

Rain

Clouds

Rain

Rain
Temperature 41°F41°F40°F40°F42°F46°F51°F54°F55°F57°F58°F57°F55°F52°F51°F50°F49°F50°F49°F49°F49°F47°F46°F45°F44°F44°F44°F44°F46°F46°F47°F47°F47°F48°F48°F47°F47°F47°F47°F47°F47°F47°F47°F47°F47°F47°F48°F48°F
Feels Like 36°F35°F35°F35°F38°F43°F47°F51°F52°F54°F55°F54°F52°F49°F47°F47°F46°F46°F45°F46°F46°F43°F41°F39°F39°F38°F38°F39°F41°F42°F43°F43°F42°F44°F45°F45°F44°F44°F44°F43°F43°F44°F45°F45°F45°F45°F45°F46°F
Cloudiness 0%20%40%60%80%100%100%100%100%100%100%100%100%100%100%100%100%100%100%100%100%100%100%100%100%100%100%100%100%100%100%100%100%100%100%100%100%100%100%100%100%100%100%100%100%100%100%100%
Visibility 6 mi6 mi6 mi6 mi6 mi6 mi6 mi6 mi6 mi6 mi6 mi6 mi6 mi6 mi6 mi6 mi6 mi6 mi6 mi6 mi6 mi6 mi6 mi6 mi6 mi6 mi6 mi6 mi6 mi6 mi4 mi3 mi6 mi3 mi3 mi3 mi5 mi5 mi6 mi4 mi2 mi1 mi1 mi0 mi0 mi0 mi0 mi0 mi
Precipitation 0%0%0%0%0%0%0%0%0%0%0%0%0%0%0%0%0%0%0%0%0%59%55%44%36%31%32%5%30%66%93%100%100%94%100%100%100%100%80%8%8%17%18%28%40%44%65%79%
Humidity 52%51%51%52%44%38%36%33%32%29%30%35%41%41%41%41%42%41%42%43%46%63%74%79%81%84%86%86%86%89%94%97%96%96%97%98%98%97%98%98%98%98%98%98%98%99%99%99%
Dew Point 26°F25°F24°F25°F23°F22°F24°F26°F26°F26°F27°F30°F31°F30°F28°F27°F27°F27°F27°F28°F29°F35°F38°F38°F39°F39°F40°F41°F42°F43°F45°F46°F46°F47°F47°F47°F47°F47°F46°F46°F46°F46°F47°F47°F47°F47°F47°F47°F
Pressure 30.3"30.33"30.33"30.36"30.39"30.42"30.39"30.39"30.39"30.33"30.33"30.33"30.33"30.33"30.36"30.36"30.36"30.33"30.33"30.33"30.33"30.33"30.33"30.3"30.3"30.3"30.3"30.27"30.3"30.3"30.3"30.3"30.24"30.21"30.21"30.21"30.21"30.21"30.21"30.21"30.21"30.21"30.21"30.21"30.18"30.18"30.15"30.15"
Wind Speed 8.3 mph8.4 mph7.6 mph7.9 mph7.5 mph7.5 mph8.8 mph7.8 mph7.3 mph9.1 mph8.4 mph8.5 mph7.9 mph7.8 mph6.6 mph6.1 mph7.6 mph10 mph9.9 mph8.6 mph7.5 mph7.5 mph7.9 mph10.6 mph9.9 mph10 mph10.6 mph10.9 mph9.7 mph9 mph6.9 mph7.4 mph9.4 mph9 mph5.2 mph5.2 mph6.4 mph6.8 mph6.6 mph6.4 mph6.4 mph6.1 mph5 mph5 mph4.8 mph4.9 mph5 mph4.3 mph
Wind
Direction
353°
N
353°
N

N
22°
NNE
45°
NE
62°
ENE
76°
ENE
83°
E
86°
E
103°
ESE
111°
ESE
111°
ESE
98°
E
97°
E
111°
ESE
102°
ESE
95°
E
94°
E
102°
ESE
114°
ESE
123°
ESE
92°
E
73°
ENE
74°
ENE
76°
ENE
80°
E
88°
E
92°
E
93°
E
97°
E
106°
ESE
96°
E
108°
ESE
95°
E
79°
E
83°
E
81°
E
81°
E
74°
ENE
73°
ENE
87°
E
77°
ENE
73°
ENE
74°
ENE
82°
E
84°
E
85°
E
71°
ENE

Daily Forecast

Date High Low Precip. Humidity
Today
Feb 29

Clouds
58 °F
40 °F
0%
33%
Friday
Mar 1

Rain
49 °F
44 °F
100%
97%
Saturday
Mar 2

Rain
62 °F
47 °F
90%
84%
Sunday
Mar 3

Clouds
67 °F
56 °F
33%
80%
Monday
Mar 4

Rain
65 °F
58 °F
95%
84%
Tuesday
Mar 5

Rain
63 °F
56 °F
100%
84%
Wednesday
Mar 6

Rain
70 °F
57 °F
100%
67%
Thursday
Mar 7

Rain
64 °F
52 °F
64%
75%
Friday
Mar 8

Rain
66 °F
59 °F
100%
98%
Saturday
Mar 9

Rain
74 °F
60 °F
100%
80%
Sunday
Mar 10

Clouds
63 °F
47 °F
0%
38%
Monday
Mar 11

Clouds
62 °F
46 °F
8%
39%
Tuesday
Mar 12

Rain
53 °F
49 °F
100%
97%
Wednesday
Mar 13

Rain
55 °F
52 °F
84%
97%
Thursday
Mar 14

Rain
64 °F
55 °F
33%
92%
Friday
Mar 15

Rain
70 °F
59 °F
86%
75%

Temperature 8-14 Day Outlook



Precipitation 8-14 Day Outlook




Quick Links
Mountain Creek Lake News
Mountain Creek Lake Photos
Mountain Creek Lake Videos




About Us
Contact Us
Site Map
Search Site
Advertise With Us
   
Mountain-Creek.LakesOnline.com
THE MOUNTAIN CREEK LAKE WEBSITE

Copyright 2024, Lakes Online
Privacy    |    Legal